FLTSATCOM 8 (USA 46)

Last updated on Fri Sep 19 2025 00:02:46 GMT+0000 (Coordinated Universal Time)

1 20253U 89077A 25260.68210979 -.00000379 00000+0 00000+0 0 9998 2 20253 12.4982 352.7842 0004217 208.0176 167.3894 1.00274928257835
UTC large
Height (km)
Speed (km/s)
/
Latitude / Longitude
Inclination (degrees)
Orbital Period (minutes)
Azimuth
Elevation
Range (km)
Doppler Factor

Next 0 passes for location: London (51.5072 / 0.1276)

Sorry there are no passes over London.